Flag for Guatemala Weather past 2 weeks in Escuintla, Guatemala

Now
63 °F

Passing clouds.


Feels Like: 63 °F
Forecast: 70 / 95 °F
Wind: 14 mph from Northeast

Location: Guatemala Aeropuertola Aurora

Current Time: Jul 2, 2015 at 4:28:34 AM

Latest Report: Jul 2, 2015 at 4:00 AM


Visibility: N/A

Pressure: 30.24 "Hg

Humidity: 94%

Dew point: 61 °F

Location of EscuintlaLocation

Historic Weather in Escuintla — Graph

°F

Escuintla temperature yesterday

Maximum temperature yesterday: 77 °F (at 1:00 PM)
Minimum temperature yesterday: 63 °F (at 4:00 AM)
Average temperature yesterday: 69 °F

Past Weeks' High & Low Weather Summary

 TemperatureHumidityPressure
High81 °F (Jun 18, 3:00 PM)100% (Jun 17, 5:00 AM)30.36 "Hg (Jun 17, 5:00 AM)
Low61 °F (Jun 23, 3:00 AM)37% (Jun 27, 2:00 PM)30.15 "Hg (Jun 18, 4:00 PM)
Average69 °F75%30.29 "Hg
* Reported Jun 17 4:00 AM — Jul 2 3:00 AM, Escuintla, Weather by CustomWeather, © 2015

Note: Actual official high and low records may vary slightly from our data, if they occured in-between our weather recording intervals... More about our weather records

Advertising

Escuintla weather history for previous 24 hours

 ConditionsComfort  
Time TempWeatherWind HumidityBarometerVisibility
3:00 AM
Thu, Jul 2
63 °FPassing clouds.12 mph94%30.24 "HgN/A
2:00 AM63 °FPassing clouds.9 mph94%30.24 "HgN/A
1:00 AM63 °FClear.12 mph88%30.27 "Hg10 mi
12:00 AM64 °FClear.14 mph83%30.30 "Hg10 mi
11:00 PM
Wed, Jul 1
64 °FClear.12 mph83%30.30 "Hg10 mi
10:00 PM64 °FClear.9 mph88%30.30 "Hg10 mi
9:00 PM68 °FClear.12 mph69%30.27 "Hg10 mi
8:00 PM68 °FClear.14 mph64%30.27 "Hg10 mi
7:00 PM70 °FClear.16 mph64%30.24 "Hg10 mi
6:00 PM73 °FPartly sunny.14 mph57%30.24 "HgN/A
5:00 PM75 °FPartly sunny.14 mph50%30.21 "HgN/A
4:00 PM77 °FPartly sunny.14 mph51%30.24 "HgN/A
3:00 PM77 °FScattered clouds.14 mph44%30.24 "HgN/A
2:00 PM77 °FScattered clouds.12 mph47%30.24 "HgN/A
1:00 PM77 °FPartly sunny.16 mph42%30.27 "HgN/A
12:00 PM75 °FPartly sunny.21 mph44%30.30 "HgN/A
11:00 AM73 °FPartly sunny.25 mph53%30.30 "HgN/A
10:00 AM72 °FPartly sunny.23 mph53%30.30 "HgN/A
9:00 AM68 °FPartly sunny.23 mph60%30.30 "HgN/A
8:00 AM66 °FPartly sunny.21 mph73%30.30 "HgN/A
7:00 AM64 °FScattered clouds.18 mph83%30.27 "HgN/A
6:00 AM63 °FScattered clouds.16 mph94%30.27 "HgN/A
5:00 AM63 °FPassing clouds.14 mph94%30.27 "HgN/A
4:00 AM63 °FPassing clouds.16 mph94%30.27 "HgN/A
Weather by CustomWeather, © 2015

See weather overviewHow to use our weather pages